Volver al catálogo

STARLINK-38233

ActivoComunicacionesSSO
NORAD 100249·PAYLOAD·🇺🇸 United States

Lanzado Aug 8, 2026 desde Vandenberg Space Force Base

Loading…

Próximos Pases (próximas 24 horas)

TLE

ActualizadoSource: Space-Track

Época: Sep 14, 2026, 15:45 UTC

1 A0249U 26181D   26257.65661935  .00188571  00000-0  12372-2 0  9993
2 A0249  97.2825 300.8549 0001762  91.8527 268.2940 15.75193014  6987

Sigue STARLINK-38233 en tiempo real con AllMySat

Download on the App Store